This is the latest recevied weather packets stored in our database for station/object W5ITZ. If no packets are shown the sender has not sent any weather packets the latest 10 day(s).
| Time | Temp. | Humidity | Pressure | Rain* | Wind** | Luminosity | Snow |
|---|---|---|---|---|---|---|---|
| 1787771026 | 36.11° C | 47% | 1015.4 hPa | 0 mm | - | 914 W/m² | - |
| 1787770725 | 36.11° C | 47% | 1015.4 hPa | 0 mm | - | 918 W/m² | - |
| 1787770420 | 35.56° C | 48% | 1015.5 hPa | 0 mm | - | 922 W/m² | - |
| 1787770119 | 35.56° C | 48% | 1015.7 hPa | 0 mm | - | 918 W/m² | - |
| 1787769818 | 36.11° C | 47% | 1015.7 hPa | 0 mm | - | 931 W/m² | - |
| 1787769518 | 35.56° C | 48% | 1015.7 hPa | 0 mm | - | 927 W/m² | - |
| 1787769212 | 35° C | 48% | 1015.7 hPa | 0 mm | - | 925 W/m² | - |
| 1787768909 | 35.56° C | 48% | 1015.8 hPa | 0 mm | - | 921 W/m² | - |
| 1787768602 | 35.56° C | 48% | 1016 hPa | 0 mm | - | 931 W/m² | - |
| 1787768298 | 35.56° C | 46% | 1016.1 hPa | 0 mm | - | 924 W/m² | - |
| 1787767995 | 35° C | 48% | 1016.4 hPa | 0 mm | - | 933 W/m² | - |
| 1787767689 | 35° C | 50% | 1016.2 hPa | 0 mm | - | 919 W/m² | - |
| 1787767389 | 35° C | 49% | 1016.3 hPa | 0 mm | - | 927 W/m² | - |
| 1787767087 | 35° C | 48% | 1016.2 hPa | 0 mm | - | 947 W/m² | - |
| 1787766786 | 35° C | 48% | 1016.2 hPa | 0 mm | - | 941 W/m² | - |
| 1787766486 | 35° C | 47% | 1016.1 hPa | 0 mm | - | 940 W/m² | - |
| 1787766180 | 35° C | 48% | 1016.4 hPa | 0 mm | - | 935 W/m² | - |
| 1787765875 | 34.44° C | 50% | 1016.4 hPa | 0 mm | - | 929 W/m² | - |
| 1787765572 | 35° C | 49% | 1016.8 hPa | 0 mm | - | 924 W/m² | - |
| 1787765272 | 34.44° C | 51% | 1016.7 hPa | 0 mm | - | 925 W/m² | - |
| 1787764971 | 35° C | 52% | 1016.8 hPa | 0 mm | - | 920 W/m² | - |
| 1787764667 | 34.44° C | 49% | 1017 hPa | 0 mm | - | 902 W/m² | - |
| 1787764361 | 33.89° C | 51% | 1016.9 hPa | 0 mm | - | 901 W/m² | - |
| 1787764058 | 34.44° C | 54% | 1017.1 hPa | 0 mm | - | 897 W/m² | - |
| 1787763752 | 34.44° C | 52% | 1017.1 hPa | 0 mm | - | 888 W/m² | - |
* Rain latest hour (hover to see other rain measurements)
** Current wind speed in m/s (hover to see current wind gust speed)